Theta_e
319 319 319 318 318 317 317 318 318 318 318 318 318 319 319 319 319 319 319 319 319 318 319 319 319 319 319 321 322 321 320 320 321 322 320 322 345 343 341 342 342 339 346 346 338 340 340 336 331 334 335 340 335 335 341 339 339 340 332 328 324 325 324 328 327 330 334 333 335 337 339 338 334 341 345 349 345 343 343 341 341 343 345 343 346 349 350 350
319 319 319 318 317 317 317 318 318 318 318 318 318 318 319 319 319 319 319 319 319 318 318 318 318 319 320 321 322 321 320 321 320 321 321 336 339 344 339 339 339 341 347 341 339 338 334 329 327 329 330 331 338 333 341 333 337 333 331 327 326 327 328 333 334 334 335 336 338 339 339 339 339 341 344 337 338 339 339 336 341 339 341 343 346 347 348 348
318 318 318 317 317 317 317 318 318 318 318 318 318 318 318 319 319 319 319 319 318 318 318 318 318 319 320 321 322 320 320 320 322 319 324 344 342 341 339 343 340 342 345 338 342 338 331 328 326 325 329 327 333 330 334 331 333 333 329 324 325 331 331 333 336 335 339 339 337 337 338 338 342 342 344 338 335 336 335 333 336 336 336 339 343 345 346 348
318 318 318 318 317 317 318 317 318 318 318 318 318 318 318 318 318 318 318 318 318 318 318 318 318 318 320 321 322 324 322 321 317 322 331 346 344 342 340 343 342 343 345 342 343 335 331 328 327 324 327 324 330 330 328 332 329 334 331 326 328 332 329 330 334 340 340 342 339 340 340 338 340 342 341 340 334 337 337 340 338 337 338 339 341 343 345 345
318 318 318 317 317 317 317 317 317 317 317 318 318 318 318 318 318 318 318 318 318 318 318 317 318 319 320 322 320 324 321 309 320 333 337 343 341 341 341 340 342 341 340 343 338 333 329 327 326 322 324 318 325 326 330 330 334 334 330 331 331 332 328 330 331 335 339 342 341 339 337 338 345 345 340 339 335 331 339 337 341 342 342 340 340 342 343 343
318 318 317 317 317 317 317 317 317 317 317 317 317 318 318 318 317 317 317 318 317 318 318 318 318 319 321 321 324 325 318 299 319 334 343 341 341 340 343 342 345 337 339 340 331 328 325 325 324 318 318 318 318 318 324 327 333 324 331 333 332 332 329 330 330 330 342 340 338 337 341 345 343 340 342 340 337 340 348 344 343 344 345 343 342 341 341 341
317 317 317 317 317 317 317 317 317 317 317 317 317 317 317 317 317 317 317 317 317 317 318 318 319 320 320 321 324 320 317 316 322 340 345 339 340 340 341 342 347 336 337 334 327 323 323 323 321 318 317 315 315 317 319 322 330 327 327 331 331 331 330 331 328 329 335 342 339 343 344 338 338 335 343 339 344 346 349 348 344 345 346 345 341 341 340 340
317 317 317 317 316 317 317 316 317 317 317 317 317 317 317 317 317 316 317 317 317 318 318 318 319 320 320 321 321 321 316 311 332 339 341 340 334 333 338 327 329 335 334 330 324 322 322 321 317 318 314 311 313 315 319 321 327 325 326 330 331 330 331 331 329 328 334 338 345 342 338 338 338 338 341 340 345 344 347 346 345 345 344 344 341 340 340 340
317 317 317 316 316 316 316 316 316 317 317 316 316 316 316 316 316 317 317 318 318 318 318 319 319 320 321 321 318 315 311 326 334 334 338 326 324 325 325 324 327 334 333 330 326 324 322 319 318 317 310 310 316 315 319 319 319 325 327 330 330 330 331 330 328 327 335 337 341 339 339 338 339 342 339 341 346 347 348 344 344 344 342 342 340 340 340 340
316 316 316 316 316 316 316 316 317 317 317 316 316 316 316 316 316 317 318 318 319 318 318 319 319 320 320 320 321 311 320 336 330 331 325 325 324 325 326 325 327 335 330 329 326 323 320 319 317 318 316 315 316 315 318 319 320 325 326 328 328 330 330 329 326 325 330 336 339 338 338 336 343 338 330 341 346 346 346 343 344 342 341 341 339 340 341 340
316 316 316 316 316 316 316 316 316 316 316 316 316 315 315 316 316 317 318 319 319 318 318 319 320 320 320 322 315 311 325 333 331 328 326 323 325 323 325 325 329 333 331 327 324 324 322 321 319 319 316 314 315 315 316 318 322 325 325 326 327 329 329 328 326 325 329 334 343 341 336 339 343 337 333 340 346 346 344 344 342 340 341 340 340 341 341 340
315 316 316 316 316 316 316 316 316 316 316 316 315 315 315 315 316 317 318 320 320 320 319 320 320 323 323 320 316 315 328 333 331 332 327 323 323 324 328 329 329 329 326 322 323 324 324 322 320 316 310 317 311 315 314 318 318 324 326 321 324 326 325 327 325 327 330 334 340 342 336 333 334 330 338 342 346 346 343 343 342 340 340 340 341 341 340 341
316 316 316 315 316 316 316 316 316 316 316 315 315 315 315 315 316 317 320 321 321 319 319 320 321 325 323 315 315 324 332 334 332 333 330 329 327 329 329 327 326 327 326 325 323 325 324 322 319 314 316 315 315 310 320 320 318 323 324 322 321 321 320 325 328 328 328 332 340 340 318 326 330 335 340 341 344 345 344 341 340 339 339 339 341 341 340 342
316 315 315 316 316 316 316 316 316 316 315 315 315 314 314 315 316 319 320 320 320 319 320 321 324 325 323 317 320 323 333 334 331 331 329 329 326 325 325 324 326 327 328 326 325 325 323 322 319 317 319 315 315 325 318 317 319 315 320 322 317 315 315 325 326 327 326 333 341 339 318 323 331 337 341 343 345 344 340 340 339 340 339 339 340 341 339 341
316 316 316 316 316 316 316 316 316 315 315 315 314 313 314 314 318 320 318 318 319 321 321 323 325 325 316 313 323 329 337 332 326 328 331 327 325 323 325 325 325 326 326 325 323 323 322 320 317 313 312 318 320 318 314 315 315 315 313 313 317 314 317 323 327 325 327 328 338 331 322 322 329 334 342 343 343 342 338 339 338 339 338 339 340 340 339 340
316 316 316 316 316 316 316 316 315 315 315 314 313 313 314 316 321 320 319 324 322 321 324 322 325 323 317 314 321 330 326 321 324 329 330 329 323 322 326 324 325 325 324 323 324 323 321 318 313 313 314 316 314 314 313 312 311 313 313 313 312 315 318 321 325 326 331 332 334 331 321 325 329 338 341 344 344 340 341 338 338 338 339 339 339 340 340 339
316 316 316 316 316 316 316 315 315 315 314 314 312 313 316 320 323 321 321 323 323 325 326 325 324 318 308 321 324 316 316 322 327 327 327 329 326 323 321 322 320 321 322 322 322 320 318 314 314 313 314 312 313 314 309 307 308 308 314 313 315 313 315 314 323 326 331 330 326 330 325 327 330 335 338 341 342 341 339 337 337 338 340 341 341 340 339 340
316 316 316 316 316 316 316 315 315 315 313 312 312 313 315 319 321 322 323 327 328 328 328 326 322 316 309 319 312 313 320 323 323 324 325 328 328 323 321 318 320 320 320 317 319 315 316 311 312 307 309 310 311 309 306 302 306 307 310 310 313 315 314 315 317 322 328 328 325 327 323 327 330 335 335 340 342 340 335 338 337 338 341 341 341 340 340 340
316 316 316 316 316 316 316 315 315 313 313 312 314 316 316 317 323 330 329 326 320 315 313 311 311 305 303 310 317 319 320 325 326 324 322 324 328 324 322 322 318 317 313 312 313 314 314 311 310 307 304 306 308 309 308 311 311 310 312 311 313 311 312 316 319 324 327 322 322 322 322 326 330 331 335 337 339 339 338 338 339 340 342 342 341 341 340 341
316 316 316 316 315 316 316 315 314 312 311 313 323 323 322 316 316 317 323 320 313 315 313 313 312 313 313 315 316 322 326 325 321 322 323 326 325 323 321 320 315 315 312 307 311 312 313 305 304 303 306 307 310 311 312 315 315 313 314 313 311 313 314 317 324 327 328 324 321 324 324 328 329 329 333 336 338 341 339 337 338 340 342 341 340 341 341 342
316 316 316 315 315 315 315 315 314 312 311 314 318 320 313 310 306 306 310 315 316 314 312 312 313 312 313 316 318 316 314 316 320 321 323 328 325 321 318 316 313 308 310 310 310 314 312 304 306 307 309 309 310 313 314 315 315 314 313 312 311 313 311 316 318 323 326 322 321 324 324 324 324 332 331 335 337 336 336 339 338 340 342 342 341 341 342 343
316 315 315 315 315 314 314 314 313 312 309 314 319 317 315 313 316 317 312 306 312 312 312 312 313 311 315 317 319 318 316 312 313 320 325 323 322 316 316 314 310 307 311 310 310 308 306 303 307 310 311 311 311 312 315 315 314 315 313 313 311 311 313 317 318 321 324 322 318 323 321 323 326 330 331 334 329 335 340 342 341 341 340 343 342 340 342 342
316 315 315 315 315 314 313 312 312 309 317 318 317 318 314 317 320 322 315 310 306 312 310 309 308 310 312 317 318 318 311 309 307 317 320 320 318 316 315 312 309 310 309 309 306 305 302 305 310 312 311 311 311 311 312 314 315 314 313 311 309 313 311 308 314 316 321 318 317 320 317 319 323 334 330 332 330 333 338 340 344 345 343 343 343 341 339 341
316 316 315 315 314 313 313 311 308 313 317 321 320 316 319 321 321 320 314 307 306 308 308 309 309 310 311 311 317 315 310 310 311 314 323 318 315 318 316 312 311 309 308 308 308 306 305 309 313 312 310 309 309 310 311 313 311 314 313 312 311 311 312 311 312 314 318 319 319 319 317 316 319 319 326 328 330 330 332 338 341 345 347 344 347 345 344 339
316 316 315 314 313 311 310 307 311 322 323 320 316 319 321 322 324 321 311 309 305 306 311 310 312 313 314 319 318 312 312 312 313 320 321 318 317 315 314 316 314 308 310 309 309 307 307 311 313 311 310 309 310 310 312 313 309 310 312 312 313 313 312 311 313 312 312 311 316 316 309 309 316 318 319 324 327 327 332 334 336 340 345 345 343 344 345 348
316 315 315 314 314 311 307 314 318 318 316 315 318 320 322 322 323 323 312 304 298 301 306 301 312 307 317 311 314 313 312 306 313 320 320 319 325 316 314 312 314 308 311 310 308 309 309 312 312 310 309 309 312 312 313 313 308 307 308 313 314 314 313 312 311 311 308 306 313 317 307 305 314 315 318 323 326 327 331 334 335 339 341 342 344 344 343 342
315 315 314 313 313 308 317 314 317 318 314 316 319 321 322 322 328 320 307 300 294 301 302 307 308 308 313 312 312 312 298 302 314 318 317 321 317 320 309 309 312 313 314 313 309 304 310 311 310 311 310 310 309 309 313 312 308 306 313 313 314 314 312 312 311 310 309 313 315 315 312 308 308 315 324 326 327 328 331 331 335 339 341 341 341 342 344 343
315 314 313 312 311 309 322 319 319 315 315 320 321 321 323 326 325 318 306 290 288 305 302 305 307 313 310 312 313 306 307 310 304 310 316 319 318 313 310 309 309 309 312 311 300 308 309 310 310 309 310 309 307 310 314 313 309 310 314 314 312 314 313 313 311 310 310 310 306 310 314 308 308 319 324 327 326 327 329 331 332 337 339 341 342 342 343 344
314 313 312 312 311 309 315 320 320 317 319 321 321 321 322 325 318 308 300 289 299 302 314 303 315 311 309 311 307 308 307 310 304 309 315 316 317 313 307 309 311 310 313 311 305 308 310 313 313 312 309 307 311 312 316 314 309 314 316 317 315 315 315 314 312 310 310 308 304 308 311 306 310 315 320 324 323 323 327 331 332 334 338 340 341 342 343 344
314 313 311 310 311 315 318 322 318 320 322 322 323 323 321 318 311 301 293 286 302 296 305 305 306 303 307 304 304 306 305 306 309 310 311 309 311 313 311 314 311 309 308 312 310 310 310 316 319 313 310 311 312 314 316 316 315 317 315 313 313 313 312 313 312 312 308 302 305 309 311 309 305 315 317 319 320 325 326 328 332 334 336 340 341 341 344 344
312 311 310 308 321 324 321 319 320 324 323 325 324 322 318 314 303 295 286 294 304 301 306 304 302 307 303 302 300 305 305 306 306 308 305 309 308 309 310 308 313 308 308 308 307 310 311 313 312 313 316 314 314 312 316 318 317 315 312 310 310 309 311 310 309 310 302 300 307 309 310 310 303 311 321 324 326 327 327 327 329 331 332 335 340 341 341 345
310 308 308 313 325 324 317 316 324 327 327 325 321 317 312 301 303 292 289 304 293 298 300 301 304 304 303 304 303 302 303 304 307 306 304 304 304 303 304 302 305 300 300 304 302 308 306 308 311 313 318 313 312 311 312 315 315 313 311 310 304 301 302 298 303 298 300 300 307 310 311 306 306 316 322 325 327 328 330 329 331 330 331 334 336 340 342 343
308 308 304 309 319 324 324 326 328 329 328 324 317 315 306 298 289 296 295 298 294 302 300 305 303 303 303 303 301 304 305 301 306 306 307 306 305 305 307 305 307 305 299 304 303 302 304 309 309 311 313 315 314 307 307 307 311 310 308 307 303 298 296 294 298 301 301 305 310 309 312 306 316 318 324 323 325 329 330 332 333 333 333 335 334 338 343 342
308 308 318 324 321 323 323 326 329 328 322 322 316 309 302 292 291 299 297 299 298 303 303 302 303 304 302 299 301 303 300 305 304 304 305 303 304 302 304 307 307 306 305 305 300 301 297 298 305 308 304 314 313 311 311 309 309 310 312 309 305 304 299 295 298 295 298 301 306 311 306 303 307 314 325 325 328 329 330 332 335 335 336 337 339 340 340 343
305 310 321 329 327 327 327 327 328 328 323 316 309 304 295 293 297 296 298 299 301 302 300 304 301 301 300 302 303 305 304 300 306 304 303 302 300 303 302 304 307 307 305 300 304 303 301 301 307 310 309 312 310 315 314 310 309 311 312 312 307 304 310 300 303 302 302 301 301 305 305 310 312 322 326 328 327 327 329 330 332 333 335 337 338 338 336 340
311 324 326 328 318 321 325 327 328 325 320 311 304 301 295 298 296 300 298 303 302 299 300 301 301 298 298 299 302 301 305 301 303 303 303 303 303 301 303 304 304 306 303 300 303 300 303 298 307 306 309 310 310 312 311 312 300 307 309 304 307 313 310 306 307 307 307 303 300 308 311 314 319 321 324 325 324 325 327 328 328 329 332 336 335 338 339 340
325 325 322 318 317 320 324 326 325 323 318 310 305 297 301 301 303 303 304 302 303 303 300 295 296 297 295 295 298 300 301 303 302 302 299 303 299 302 301 303 305 306 306 304 301 307 300 299 305 304 303 308 311 310 310 311 311 307 303 307 314 315 312 307 300 304 301 297 300 305 305 309 310 307 323 322 320 322 323 326 326 328 329 330 333 337 340 342
320 320 318 316 318 321 322 327 323 320 314 308 301 299 304 300 305 304 305 304 303 303 300 297 296 300 296 296 296 298 301 298 299 300 298 301 296 304 302 303 305 304 306 309 302 304 305 297 301 305 305 307 310 309 307 310 313 307 307 312 306 301 301 307 303 297 297 296 299 303 306 308 308 312 317 317 318 319 322 325 325 325 326 327 331 336 339 338
324 318 314 316 321 321 321 324 322 317 310 309 301 300 302 303 306 304 305 306 304 303 300 300 298 300 300 296 298 300 299 296 299 299 297 298 296 302 302 304 303 306 307 307 304 305 306 298 299 306 305 307 307 306 299 303 309 311 312 308 311 309 305 302 304 305 304 298 298 300 304 303 310 316 317 315 318 319 321 321 323 324 325 326 328 330 333 335
318 313 311 318 320 321 324 320 315 312 307 302 303 302 306 302 305 306 308 306 303 303 302 301 302 300 301 301 301 298 300 300 299 298 299 300 298 303 302 305 302 305 305 307 305 307 303 307 297 302 307 306 300 304 302 304 301 304 305 305 308 308 311 309 308 305 301 300 300 299 298 307 315 319 317 317 319 320 321 321 323 324 325 326 327 328 331 333
317 311 310 319 319 322 320 315 309 306 304 305 305 303 304 303 305 306 307 307 306 307 304 302 301 300 301 300 300 302 299 300 300 299 299 300 301 296 302 303 305 303 306 305 304 306 303 303 298 301 301 299 302 307 306 305 307 305 304 304 306 304 302 299 299 308 306 301 297 299 297 308 315 321 318 319 320 320 321 323 322 322 323 324 324 324 327 331
313 307 308 318 319 319 314 307 305 308 306 303 301 304 302 307 305 304 306 307 306 305 307 304 302 301 301 301 302 300 301 300 300 299 300 299 301 301 301 306 305 307 304 302 303 305 305 305 302 298 300 301 304 306 308 308 308 307 307 305 308 307 306 303 295 301 304 304 307 307 304 306 318 320 320 319 320 321 322 323 321 320 322 322 323 323 325 328
311 308 316 318 319 317 311 305 306 305 303 303 306 305 307 305 304 305 305 305 304 305 304 304 303 301 302 302 301 302 303 300 301 300 301 301 300 302 304 305 307 306 306 304 304 305 306 302 299 299 302 304 307 307 308 308 307 305 307 307 306 304 306 304 304 306 303 304 302 302 302 306 318 322 321 321 321 322 323 323 322 320 321 322 322 322 323 325
311 310 311 316 319 317 309 303 301 302 302 304 303 302 305 305 305 304 303 304 304 304 303 303 303 306 303 305 303 301 304 298 301 301 300 302 300 304 304 305 307 305 304 303 303 305 300 303 301 296 296 299 301 304 304 306 306 304 304 307 307 307 307 308 307 308 302 304 304 301 298 307 316 321 321 321 320 320 320 321 323 320 320 320 321 321 321 323
312 312 311 312 317 314 306 306 305 302 302 302 302 301 302 302 304 305 305 303 306 305 304 301 304 304 303 305 303 304 304 303 299 303 302 302 301 304 304 304 305 304 305 305 307 307 303 303 301 294 291 290 290 292 294 298 300 303 306 304 305 305 306 305 301 304 298 305 307 301 304 310 315 318 318 319 319 319 320 321 322 321 320 320 321 321 320 321
310 307 308 309 312 311 309 310 308 304 301 302 300 300 302 300 302 304 305 303 306 305 305 304 305 305 303 303 301 301 301 304 302 300 302 300 301 302 303 304 303 303 306 310 309 306 303 303 304 302 299 297 298 301 304 306 304 300 302 303 303 305 306 306 305 303 300 304 304 309 309 308 310 313 315 316 318 318 318 319 319 319 319 320 322 322 321 320
311 304 305 304 309 307 305 308 305 306 304 305 301 301 299 300 301 302 305 302 304 304 304 305 303 302 301 302 300 301 302 301 304 303 302 301 303 303 304 304 304 304 306 308 305 304 303 299 300 301 301 301 300 299 302 304 302 303 301 301 303 303 305 305 302 301 309 305 298 310 313 309 310 313 314 315 317 318 318 319 319 321 319 319 320 322 323 322
305 305 309 310 304 300 304 302 306 303 304 305 301 303 301 300 301 299 302 304 305 305 303 302 304 304 304 303 302 300 301 302 303 301 302 303 302 303 303 304 303 304 305 304 306 303 302 298 301 300 299 299 301 301 301 301 301 301 301 301 301 303 304 303 304 306 308 304 303 312 314 311 311 313 315 316 317 317 317 319 320 322 321 320 321 320 320 320
309 308 307 309 305 304 304 304 306 304 303 304 302 303 299 300 298 301 302 301 302 303 305 300 300 302 303 304 305 302 303 299 300 304 304 302 302 302 301 303 304 305 304 304 304 305 302 299 300 300 298 298 298 299 300 299 299 300 300 301 302 303 304 305 305 307 307 308 314 313 314 311 313 314 316 316 318 318 318 320 321 320 320 321 319 319 318 318
310 311 305 309 308 306 306 306 306 305 301 304 303 301 303 301 299 301 303 303 299 300 305 301 301 303 304 305 306 302 303 303 303 301 303 303 301 302 302 302 302 306 304 302 302 305 301 299 299 298 297 296 298 298 299 299 299 298 299 300 301 302 304 306 306 308 311 313 314 313 311 310 314 317 316 318 319 318 318 318 318 320 320 318 318 317 317 317
313 318 318 310 305 304 308 307 306 305 303 304 302 301 302 301 301 303 302 306 303 301 302 300 302 303 304 304 304 302 304 304 304 303 303 303 300 302 302 303 302 302 303 302 303 303 301 301 300 298 294 295 297 297 298 298 298 299 298 299 300 301 301 304 305 309 311 309 312 311 308 307 312 316 316 317 317 317 316 316 317 317 316 317 316 316 316 317
318 315 318 313 303 305 304 304 306 305 301 304 304 303 302 301 302 304 300 304 305 306 305 304 304 303 302 303 301 302 304 304 304 305 305 305 306 305 305 304 304 304 304 302 302 301 302 301 296 296 292 295 297 296 298 297 296 294 297 299 301 302 306 308 310 310 312 315 309 307 308 312 314 315 313 314 315 315 316 315 315 317 318 317 316 316 316 317
Wind_Speed
16 16 16 16 16 15 15 16 16 16 16 16 15 15 14 14 14 14 14 14 15 13 13 13 12 11 12 12 11 7 8 10 10 11 12 17 6 7 8 10 13 13 14 12 14 14 13 13 13 11 10 8 9 9 7 8 7 5 6 7 4 5 5 6 8 4 3 10 12 10 4 8 8 4 5 1 5 1 9 12 8 6 5 11 22 22 22 21
16 16 16 16 16 15 16 16 16 16 16 16 16 16 15 14 14 14 14 14 14 15 13 13 13 12 12 11 11 10 10 11 13 15 20 3 11 7 10 12 13 15 15 14 16 15 13 13 12 11 11 9 7 8 6 6 6 7 7 3 2 5 6 7 9 7 6 8 11 10 8 6 8 10 10 7 7 8 10 12 16 10 13 22 23 23 22 21
16 17 16 17 17 17 17 16 16 16 16 16 16 17 16 16 15 15 15 14 14 14 13 13 12 13 12 11 11 6 9 12 13 19 20 15 12 10 10 13 14 16 17 15 14 14 13 12 11 11 10 9 8 7 6 5 6 7 6 6 5 6 7 7 11 9 8 8 11 11 11 11 8 8 8 8 15 13 10 13 12 16 21 22 23 23 22 21
17 17 16 16 17 18 17 17 17 17 17 17 17 17 17 17 16 16 15 15 13 14 13 13 13 12 13 12 8 10 10 12 11 4 12 13 12 11 12 14 16 18 17 14 12 13 11 10 10 13 9 11 7 10 7 6 7 5 9 2 5 2 3 5 10 14 10 9 10 8 10 7 8 6 7 11 14 5 7 10 13 18 21 23 23 23 22 21
17 17 17 18 18 18 17 17 17 17 18 18 18 17 17 17 17 16 16 15 14 13 13 13 12 12 12 11 9 9 9 9 7 9 9 12 12 12 13 16 17 20 18 13 12 13 11 11 11 12 11 8 8 8 9 7 8 5 7 6 1 4 5 1 8 14 10 8 9 6 8 8 8 8 6 4 2 10 5 6 15 15 20 22 24 23 21 22
17 17 18 17 19 18 19 18 17 17 17 17 19 19 18 17 17 17 16 15 14 13 12 12 12 12 12 11 10 10 7 1 4 6 6 11 12 13 14 15 18 19 17 14 13 13 13 11 12 11 10 10 9 10 9 11 8 7 5 2 2 3 2 1 6 6 19 12 7 9 6 7 6 5 8 7 3 3 5 9 16 15 18 21 21 21 21 21
17 17 17 18 18 19 20 19 18 17 17 17 17 18 19 19 17 17 17 16 14 13 11 11 11 11 12 10 11 9 10 12 2 6 13 10 11 12 14 16 18 18 17 14 14 13 13 12 13 10 9 10 9 10 9 11 8 9 4 3 6 3 2 4 3 3 11 10 10 8 9 7 6 6 6 7 2 3 4 8 13 16 18 21 21 20 20 20
17 17 18 18 18 19 19 19 19 18 18 18 17 18 19 20 18 17 18 17 15 13 12 10 11 11 10 10 8 8 11 6 11 10 12 12 11 13 15 17 19 17 16 15 14 14 12 14 13 10 10 9 6 10 6 9 9 9 7 4 2 2 2 5 2 4 11 12 6 9 10 9 7 5 5 8 5 8 10 9 15 17 18 20 20 20 19 19
16 17 17 17 18 19 19 20 19 19 19 19 18 18 19 19 20 19 18 17 15 13 11 11 10 9 7 7 8 10 4 8 9 11 14 13 13 15 18 15 19 17 15 14 14 12 12 12 13 11 7 10 5 10 7 8 9 11 9 6 5 6 3 1 3 4 12 8 10 10 8 8 7 7 3 3 1 5 8 13 15 18 19 19 19 20 19 18
17 17 17 17 18 19 19 20 19 20 20 19 19 20 20 20 20 20 18 16 15 13 11 10 9 9 8 7 8 9 6 1 10 11 11 12 14 17 18 15 19 16 14 15 13 14 14 9 12 10 12 12 5 9 8 12 4 4 11 8 8 7 5 4 6 4 7 10 12 9 9 9 7 6 2 4 7 8 10 13 15 17 19 19 18 18 17 18
17 18 18 18 18 19 19 20 20 20 20 20 19 21 21 21 20 19 18 16 14 12 11 11 9 8 8 8 9 4 1 2 6 8 11 11 15 16 16 15 17 14 14 14 14 13 12 10 10 4 4 8 2 9 11 10 5 7 8 8 9 8 7 6 4 3 7 10 12 8 9 8 4 3 4 7 9 9 12 12 15 17 17 17 19 17 16 16
17 18 18 18 18 19 20 21 20 20 20 20 21 21 21 21 19 18 17 16 13 12 11 12 11 7 8 11 9 4 2 5 6 8 9 12 12 13 13 13 15 13 13 13 13 12 11 10 7 8 4 1 7 6 12 12 7 5 4 9 11 12 11 11 7 7 5 12 12 11 12 8 7 6 9 8 7 8 12 12 14 17 17 17 18 16 15 15
16 17 17 17 18 19 21 21 21 21 21 18 18 22 22 19 18 17 17 14 11 11 12 12 10 7 7 9 8 6 2 6 7 8 9 9 10 11 8 11 14 12 11 10 12 11 10 8 8 11 10 7 8 5 8 10 8 9 10 9 7 8 10 10 4 4 7 14 18 8 4 4 7 6 11 11 9 10 11 13 13 13 16 16 16 15 15 15
16 17 17 17 18 19 20 20 22 20 18 19 18 20 21 19 17 16 8 7 5 12 12 12 9 8 8 7 6 3 2 4 8 9 10 9 10 9 9 10 11 9 7 8 8 9 7 6 8 11 8 9 6 8 10 6 8 10 10 9 8 8 9 12 8 9 6 11 17 11 5 6 4 7 11 12 12 12 11 13 14 13 14 16 15 15 15 16
15 16 17 18 18 19 20 20 16 16 18 19 17 21 20 18 17 8 2 6 6 11 11 8 9 7 8 5 6 8 8 0 10 9 8 10 9 10 10 10 10 9 8 7 7 4 4 6 8 9 9 9 10 8 8 10 10 10 10 11 10 11 6 10 9 8 7 9 14 8 3 6 10 11 10 12 11 10 10 11 15 12 11 16 15 15 15 15
14 14 16 16 19 19 19 16 15 16 17 16 17 21 20 17 11 2 7 3 8 11 9 8 8 9 9 8 6 7 7 10 10 10 8 8 9 9 10 9 9 7 7 6 2 4 5 6 9 8 8 8 10 7 8 8 10 12 11 10 12 12 5 7 8 9 6 11 5 3 5 5 3 5 10 7 11 8 11 14 16 18 15 15 14 15 14 16
14 14 14 15 18 18 18 15 15 15 14 16 20 19 16 14 5 7 6 7 7 8 7 4 5 7 7 7 5 11 10 10 11 9 9 8 9 10 10 10 9 9 9 4 4 5 8 9 7 9 11 9 8 9 10 11 11 12 12 11 11 14 11 9 10 10 8 9 9 7 7 5 7 9 9 10 12 15 11 15 14 15 11 14 14 14 15 15
16 15 15 15 18 19 16 15 14 14 14 16 17 15 13 13 14 5 4 8 5 7 8 7 6 6 11 6 11 11 11 8 12 9 9 7 5 11 10 9 9 11 8 9 6 10 9 8 9 9 9 10 10 11 12 12 12 12 12 13 10 13 14 9 10 10 9 10 10 9 6 9 9 7 9 11 14 13 14 11 16 14 14 14 13 14 16 15
18 18 15 15 15 16 16 14 13 13 14 20 21 16 16 14 8 7 7 6 7 6 7 8 8 5 7 13 5 11 12 11 9 11 11 9 8 9 10 6 10 12 10 10 9 12 9 8 9 10 11 12 12 13 13 10 12 12 14 13 11 12 14 10 8 12 10 10 8 13 6 12 13 11 10 12 16 17 13 6 4 14 12 13 13 13 14 15
19 16 15 14 14 15 15 13 12 11 10 14 5 6 5 5 6 5 9 9 11 11 11 1 10 4 5 7 8 9 11 9 10 11 11 8 9 11 10 9 11 11 10 10 12 13 9 12 11 12 11 13 15 15 16 16 5 11 14 14 15 15 11 9 12 6 8 9 8 12 10 16 10 14 17 14 11 9 14 15 13 12 13 13 13 14 14 15
17 16 15 14 14 14 14 12 11 10 8 9 10 7 6 6 7 4 2 10 11 11 9 7 8 8 5 4 8 9 10 11 8 11 11 9 10 11 10 11 11 11 11 11 11 9 10 12 12 14 14 13 14 13 15 13 9 12 11 15 14 10 10 12 10 11 9 8 5 5 7 10 12 10 4 11 8 11 11 14 15 12 11 11 13 14 14 14
18 16 15 14 14 13 12 12 11 9 10 8 8 9 5 7 6 4 6 6 12 9 9 8 4 8 0 7 2 2 10 11 12 13 11 13 12 13 12 12 13 10 11 12 10 11 11 13 12 14 14 10 12 13 13 8 9 12 10 11 13 11 2 10 7 8 8 7 8 9 8 8 11 14 10 9 13 9 9 10 9 13 13 11 11 13 13 14
20 18 15 13 12 12 10 12 10 8 6 7 8 13 4 4 3 5 6 7 7 6 6 8 9 9 7 6 7 9 11 11 12 13 14 14 13 14 12 12 12 11 12 13 11 11 11 12 15 13 13 10 11 12 13 6 11 10 7 10 14 10 12 9 9 9 9 9 9 11 10 7 11 21 15 16 13 11 9 8 7 8 11 12 12 11 12 12
21 18 16 14 11 9 10 8 10 7 7 10 11 5 5 3 4 6 9 7 4 10 7 8 9 8 9 8 10 13 11 10 10 15 13 14 11 9 9 13 12 12 12 14 13 11 10 9 15 12 13 13 12 14 12 9 10 11 13 10 12 12 12 8 7 11 9 11 12 9 6 8 9 12 16 15 11 14 15 13 10 7 8 9 10 12 6 14
19 19 18 14 11 9 8 7 5 7 8 8 7 2 1 3 3 6 8 6 8 6 2 5 4 7 7 4 8 12 12 6 12 12 13 14 13 9 8 8 10 12 11 14 12 12 12 11 13 16 15 13 12 11 13 11 10 10 14 14 9 15 14 8 5 10 9 9 10 6 7 9 12 11 12 11 13 12 12 16 13 11 10 8 10 11 10 1
19 18 19 14 12 10 8 4 4 2 4 6 2 3 1 5 5 5 8 7 7 7 10 10 7 7 1 11 8 9 6 6 2 13 11 13 10 9 5 9 8 11 11 11 12 9 9 8 8 15 11 13 13 11 14 14 11 10 11 14 14 13 11 11 9 5 8 8 14 11 9 5 7 11 10 10 9 10 15 13 13 12 11 11 9 9 8 10
19 18 16 14 12 7 6 2 4 4 8 5 2 2 3 5 3 7 8 6 6 4 5 10 10 4 5 9 12 7 12 11 4 10 12 10 12 9 11 8 10 10 9 8 7 11 12 12 10 6 13 13 13 12 12 14 11 10 6 15 13 12 13 14 11 10 8 4 4 12 9 4 7 7 8 6 9 8 9 14 13 9 11 11 11 10 9 9
19 18 13 11 9 7 5 7 7 6 2 6 4 3 5 4 5 6 5 5 8 6 7 8 5 3 5 10 8 11 7 18 11 10 10 12 11 8 12 8 10 9 11 11 11 6 15 10 11 13 11 12 13 11 10 14 12 6 6 14 14 5 4 3 8 9 12 11 10 9 10 9 8 6 7 5 6 7 7 8 15 13 10 11 11 11 10 12
17 15 13 12 10 9 8 6 8 7 6 4 4 4 4 2 7 6 5 1 5 2 3 7 3 8 5 10 12 5 6 8 8 14 8 5 12 6 11 9 9 11 8 8 10 10 11 6 10 12 12 11 11 12 10 14 14 6 7 3 5 11 12 9 9 10 11 11 11 10 11 9 6 9 6 7 7 5 6 6 8 13 13 12 10 8 10 10
16 16 13 11 7 6 5 6 7 5 4 4 5 5 6 7 6 7 5 1 3 8 7 5 9 11 9 13 10 8 9 6 5 10 10 9 11 11 9 11 7 11 11 12 19 6 11 11 10 11 12 11 12 12 12 11 16 5 8 7 8 8 11 11 10 10 9 13 11 10 15 12 4 4 6 7 4 3 6 6 6 7 13 11 12 10 9 10
16 13 11 6 6 6 5 6 3 3 3 4 6 8 7 6 6 3 2 8 3 10 5 7 6 8 13 12 10 11 7 7 9 10 11 9 11 11 6 10 7 8 10 9 13 14 6 12 8 9 10 10 12 12 15 13 12 15 5 5 7 10 7 8 9 9 10 12 12 13 15 18 8 6 5 5 3 3 2 4 3 3 6 10 12 16 16 14
16 13 10 7 6 7 7 6 5 3 3 5 6 8 7 7 6 4 3 3 8 6 8 7 6 11 11 12 9 9 8 8 8 11 9 9 9 9 9 9 9 8 11 11 11 13 10 11 6 9 5 6 9 12 13 11 10 12 9 9 12 10 9 11 10 12 11 11 12 15 17 11 12 8 9 9 7 7 3 4 5 2 1 3 8 13 14 13
16 13 11 11 11 6 5 5 3 3 4 5 6 6 8 5 2 3 4 2 3 3 5 8 10 12 10 11 9 14 9 10 8 14 13 12 13 10 9 8 9 13 5 10 12 14 10 9 14 12 9 10 12 13 12 14 11 13 12 10 12 11 12 11 11 7 9 11 10 13 15 8 13 10 9 10 7 8 5 6 5 4 1 1 5 6 10 10
15 12 6 8 9 7 4 4 2 3 6 6 7 6 4 5 3 2 4 2 5 4 3 5 8 9 7 5 6 4 10 7 10 5 7 7 8 8 6 10 8 5 9 8 14 13 12 12 12 10 8 14 14 10 13 11 12 13 12 13 11 10 8 10 9 12 11 10 11 11 14 9 9 8 8 11 9 8 7 8 6 5 4 2 1 6 10 13
18 10 11 8 9 9 7 4 4 5 6 6 8 5 6 3 1 3 2 3 3 3 5 5 9 9 12 11 9 12 4 8 12 10 11 8 11 9 10 9 6 6 6 9 11 9 17 9 13 10 3 19 15 12 9 8 10 14 13 12 13 12 8 11 8 10 10 10 13 11 4 2 7 14 11 8 10 10 8 9 7 9 6 4 4 5 9 9
8 6 8 8 3 4 2 3 4 6 6 8 4 4 2 6 5 5 6 5 2 4 8 8 7 7 5 5 8 6 2 5 9 10 9 6 6 4 7 4 3 5 8 7 6 10 12 5 14 10 6 11 14 15 10 8 9 11 13 14 13 10 12 9 10 13 11 11 12 9 9 11 11 11 12 12 10 10 9 9 10 10 10 6 6 8 8 5
7 6 8 2 4 3 2 4 3 5 7 7 6 4 5 6 6 6 4 7 7 5 6 6 7 6 8 8 8 11 10 8 11 7 5 4 5 5 1 2 3 8 4 8 9 8 7 9 10 11 11 9 3 3 11 15 12 7 13 12 11 12 12 9 10 9 12 13 10 15 15 12 11 8 7 10 10 10 10 8 10 11 10 9 8 10 10 8
9 5 4 3 4 4 1 2 6 6 7 8 5 7 3 4 5 6 5 6 4 7 2 3 3 6 5 4 7 10 9 9 8 9 8 9 4 2 1 2 1 7 8 7 7 1 1 7 7 10 10 10 10 10 10 12 16 13 4 7 12 13 16 9 6 11 14 14 10 15 16 11 11 7 11 9 9 7 8 8 9 11 10 10 7 10 9 9
10 7 7 4 4 6 6 2 7 8 5 8 6 5 4 6 4 7 6 6 5 4 9 1 1 4 1 7 3 5 9 6 9 9 6 2 2 5 4 5 1 6 7 7 8 7 6 7 9 7 8 10 10 12 12 13 16 16 10 12 11 11 12 10 10 9 10 11 12 14 16 9 6 7 8 8 9 5 6 6 8 10 10 9 7 7 10 8
8 9 4 4 5 6 4 6 7 10 7 3 5 6 2 6 5 6 6 9 2 7 7 1 4 4 5 6 8 5 4 5 7 2 4 4 2 5 5 3 5 6 5 6 9 5 8 6 4 7 7 10 10 9 9 12 15 12 11 10 10 10 4 10 10 12 9 9 12 9 10 6 8 6 9 7 6 7 6 6 7 8 10 10 9 8 7 8
3 6 6 6 5 5 7 10 8 1 0 2 4 6 5 7 5 5 4 6 2 1 8 6 1 1 3 4 3 3 3 1 3 4 2 4 5 5 7 6 6 6 5 5 7 4 7 7 5 8 9 8 6 6 4 9 5 8 14 10 12 14 12 14 15 13 13 10 8 11 9 5 6 4 7 8 7 7 6 6 8 10 11 10 10 11 9 8
9 5 7 8 5 7 9 6 3 3 4 4 5 4 5 5 3 4 2 1 5 2 1 1 3 3 2 5 6 4 3 3 2 2 3 1 7 8 6 7 6 6 6 3 3 6 6 7 9 8 7 8 10 3 4 7 5 6 5 12 14 12 12 10 10 12 13 13 14 6 11 4 5 6 8 9 9 7 8 8 8 10 10 11 11 11 11 12
3 5 6 7 4 8 9 4 0 2 2 4 4 4 2 2 4 2 3 5 1 3 2 4 5 3 2 3 2 1 2 4 3 2 5 6 6 7 7 7 9 6 8 1 7 5 5 6 8 3 4 8 6 5 5 6 9 7 8 4 6 11 13 13 13 8 10 14 13 8 6 6 5 6 9 9 9 8 7 8 9 9 9 10 11 12 12 12
1 3 4 5 6 4 10 1 3 4 4 4 3 6 5 7 7 5 4 5 5 4 6 4 5 7 5 2 3 1 1 2 3 2 5 3 5 5 7 7 12 6 8 7 6 9 6 6 8 6 7 6 3 4 8 6 6 8 10 10 6 9 9 10 9 5 8 11 15 10 9 6 8 8 8 9 9 9 9 8 8 9 9 9 10 10 11 12
2 3 1 3 1 5 2 4 1 5 5 4 4 6 6 4 6 8 7 7 4 4 1 4 6 2 3 0 2 0 3 7 6 3 5 6 7 3 6 8 10 7 8 8 8 8 6 3 4 8 10 10 10 11 11 11 11 11 5 2 6 11 9 9 11 9 5 7 12 6 7 11 11 9 10 10 9 10 10 9 10 10 10 9 9 10 11 12
4 3 3 4 2 4 4 3 4 4 5 5 4 4 3 5 5 4 7 6 8 3 6 2 2 1 4 4 3 1 3 2 2 5 4 6 6 4 4 5 7 8 8 9 10 8 4 2 1 4 4 3 6 6 6 10 11 11 9 7 5 9 8 9 10 10 11 9 8 7 15 14 13 13 12 11 9 9 9 10 9 9 10 10 10 10 10 11
3 4 5 3 3 5 4 3 4 5 3 3 1 2 4 3 4 6 7 2 4 5 4 7 1 3 1 1 3 4 3 6 5 5 3 4 4 5 3 4 5 7 8 9 3 6 3 5 3 1 2 2 5 6 6 9 5 3 4 8 5 6 7 12 11 11 4 6 4 6 18 18 15 15 12 11 10 8 9 9 8 9 9 10 10 10 11 12
2 3 2 5 5 3 2 5 4 5 4 2 6 3 3 3 3 4 5 5 1 4 4 2 2 6 4 5 1 2 2 4 2 4 2 3 4 5 6 4 3 3 7 2 3 5 5 7 4 6 3 2 3 5 6 3 4 1 2 2 5 3 7 13 15 6 7 10 3 14 14 16 15 14 12 11 9 8 8 8 8 10 11 9 10 11 12 12
4 3 4 3 3 5 5 6 6 6 6 5 4 2 4 4 5 6 7 5 4 4 7 4 3 3 2 2 4 5 6 3 6 4 4 2 4 2 3 4 3 4 3 2 2 2 4 4 3 2 1 3 2 3 2 4 3 6 6 3 3 6 2 4 4 7 9 7 15 17 15 15 13 15 12 11 10 10 9 7 7 9 8 9 10 11 12 12
3 4 5 3 4 3 2 2 1 1 6 2 1 5 3 3 6 4 6 6 4 5 1 7 5 6 6 6 5 5 6 8 6 3 3 5 3 3 3 5 5 4 3 3 4 3 5 2 1 4 6 4 3 4 7 5 4 6 5 5 4 4 3 3 2 1 1 12 16 19 18 14 9 12 13 11 9 9 9 8 9 7 8 9 9 10 11 11
5 3 5 4 2 4 2 1 3 3 4 4 4 3 4 5 8 7 9 9 7 6 5 7 5 6 6 7 6 7 6 5 6 6 2 3 6 5 6 5 4 4 1 1 1 1 6 1 3 5 7 5 4 5 3 6 6 7 5 7 6 5 7 5 6 2 8 10 12 17 13 12 12 12 12 11 11 10 9 9 8 7 8 8 9 10 10 10
1 2 4 6 1 1 2 3 2 5 5 5 5 4 4 7 7 2 6 5 6 6 5 6 4 2 6 5 5 4 4 4 5 5 4 3 2 2 1 3 3 5 3 2 1 4 4 3 4 6 7 5 7 2 3 5 7 9 10 7 6 1 4 4 5 2 3 14 13 9 9 13 13 12 12 12 11 10 11 9 7 7 7 8 9 9 9 9
Wind_Direction
340 340 340 339 338 335 339 337 336 335 335 335 335 332 332 331 330 329 326 327 325 323 325 320 320 316 311 309 307 303 289 267 264 230 229 244 40 108 131 112 145 178 197 203 200 185 190 196 201 198 210 212 219 239 227 224 252 242 252 273 346 77 18 40 49 64 98 142 143 150 195 157 140 171 141 81 269 168 142 149 113 84 129 132 130 135 135 140
341 338 339 337 335 335 336 336 334 333 333 333 332 330 328 327 329 326 325 323 324 320 319 320 314 314 309 304 306 299 280 273 264 258 243 195 148 149 132 164 158 182 192 201 197 187 188 193 199 189 212 213 199 232 174 220 221 245 271 269 163 54 56 44 94 79 130 133 137 159 161 161 158 157 162 147 157 178 155 140 129 153 146 124 132 138 142 147
339 338 337 335 333 333 334 333 332 332 331 331 329 326 325 325 325 326 322 322 320 318 316 313 313 308 309 303 301 281 279 282 260 252 253 173 145 148 157 170 171 183 196 194 193 191 199 186 194 195 210 227 178 218 181 216 203 232 276 284 49 43 73 66 91 110 135 131 150 157 170 164 175 180 124 185 167 168 150 123 127 129 129 133 137 145 145 148
338 337 335 334 330 331 331 331 331 329 330 328 326 323 323 323 323 321 321 319 318 314 313 311 306 307 305 302 290 282 270 279 268 129 83 122 139 154 171 173 177 187 204 212 188 202 205 193 193 207 207 240 181 243 196 194 230 157 233 274 82 53 65 68 91 123 123 142 146 167 147 148 192 184 151 194 141 144 141 132 134 141 139 139 145 146 151 150
336 335 334 332 331 329 330 330 329 329 327 326 323 321 322 322 320 320 318 316 315 310 310 305 302 303 302 301 291 276 279 274 100 79 99 137 147 158 176 179 178 188 203 209 194 209 206 199 196 213 233 220 225 215 232 212 237 310 266 43 144 183 106 346 87 107 120 127 132 170 163 152 188 150 245 135 359 133 147 195 138 149 143 147 148 150 154 152
334 334 332 330 329 329 329 329 328 326 325 324 321 320 319 320 318 316 314 313 309 309 301 303 298 296 301 298 278 260 264 207 67 71 150 153 149 162 176 175 183 195 202 211 200 202 204 201 204 211 219 242 210 219 202 239 187 248 225 212 229 51 70 274 72 93 127 149 156 165 156 142 159 158 196 100 58 97 205 271 146 153 149 148 149 151 154 154
333 332 331 330 328 327 327 327 326 325 323 323 321 317 318 318 318 314 310 308 305 299 299 292 296 296 299 300 261 255 247 278 43 99 123 151 149 159 173 175 182 201 203 205 201 199 201 203 208 207 224 233 236 223 225 215 196 244 257 197 191 138 271 88 80 135 110 132 156 155 134 163 166 155 132 122 101 185 208 261 136 147 151 150 151 158 156 155
332 330 329 328 327 325 325 326 325 323 323 322 319 317 316 317 314 311 307 301 297 293 290 286 285 293 299 275 257 228 229 252 102 114 132 135 156 162 168 177 186 197 205 207 194 205 193 210 203 212 230 228 203 221 209 225 200 225 241 187 223 214 152 220 82 130 101 119 125 155 157 162 190 111 172 135 172 183 154 185 135 146 154 152 153 157 156 155
332 330 329 327 326 326 325 325 324 322 322 322 319 318 318 313 311 309 303 298 291 286 280 277 277 282 283 280 270 276 216 57 101 117 137 157 159 163 174 175 188 195 203 204 203 203 200 206 212 223 210 223 243 228 195 232 211 226 232 228 233 224 223 297 209 150 118 120 155 151 166 163 132 150 103 70 266 126 154 134 146 146 155 153 158 155 158 157
332 329 329 327 325 325 324 324 323 322 322 320 319 319 315 312 311 307 301 295 289 276 263 260 262 260 256 251 263 255 85 172 102 123 148 155 156 162 184 179 183 195 201 202 196 205 207 193 222 208 279 293 273 231 220 220 339 199 212 240 244 244 248 181 255 122 136 126 135 161 149 152 129 140 168 273 255 149 151 141 143 152 153 156 158 156 158 160
329 329 327 326 326 325 324 323 323 321 320 320 321 317 314 312 307 303 297 290 280 265 251 245 244 243 242 235 266 274 23 273 128 130 146 158 160 172 181 180 189 196 204 195 202 207 203 232 201 247 256 256 205 237 236 231 238 237 257 232 247 261 251 243 217 161 167 135 145 150 129 139 118 172 162 181 228 162 147 143 152 150 154 157 154 157 158 163
329 327 327 326 325 324 323 322 322 322 319 321 319 317 314 310 306 297 292 287 268 247 237 234 226 237 257 265 254 309 353 95 141 139 140 154 171 176 182 183 192 202 202 194 206 202 212 226 228 225 210 328 250 240 227 240 237 263 243 241 220 226 233 216 223 148 198 127 134 120 118 148 171 180 162 177 185 166 143 152 154 153 152 157 154 155 163 161
326 328 326 325 324 323 322 321 321 321 319 317 316 317 314 307 302 296 291 279 242 224 219 223 222 236 265 252 230 64 274 138 137 142 148 163 160 187 178 185 196 207 209 206 200 200 212 230 245 239 251 277 282 227 3 213 224 245 237 246 226 222 239 192 169 137 206 117 128 116 103 212 176 164 166 170 184 168 151 161 158 156 156 155 156 158 162 161
327 325 324 323 321 321 320 319 320 319 316 317 317 317 312 307 302 304 289 248 196 201 206 213 228 236 246 272 72 93 54 167 132 162 169 157 172 161 185 173 196 210 210 231 203 201 203 222 251 252 268 241 221 46 223 209 222 226 221 223 234 214 226 156 202 153 183 133 141 183 117 192 160 168 165 175 172 155 168 172 162 157 159 157 160 159 166 159
320 322 321 319 321 320 318 318 319 315 312 317 316 316 309 305 307 321 338 190 200 189 201 211 228 246 226 232 103 94 358 238 180 165 158 169 153 158 168 176 186 207 200 218 194 192 200 223 239 238 239 234 278 281 226 217 202 226 220 209 218 232 150 171 183 169 177 152 155 176 121 93 163 173 180 172 164 163 173 207 151 150 175 162 161 163 166 161
316 316 315 318 319 317 315 318 316 312 313 315 315 312 304 297 312 7 200 244 168 182 192 204 207 241 291 242 100 118 191 192 173 171 159 163 162 157 147 177 165 187 180 211 194 170 210 214 225 219 237 208 242 241 212 214 199 213 232 209 211 227 144 190 184 178 198 129 122 229 106 148 93 185 178 186 164 175 175 220 158 160 174 165 167 164 166 164
319 315 316 313 314 314 317 314 311 312 313 312 313 299 293 292 266 241 227 161 166 192 207 247 194 206 252 70 171 190 172 203 154 171 185 160 182 137 164 157 175 157 185 141 198 175 187 216 205 232 240 247 206 236 224 207 199 205 209 238 206 218 177 213 179 184 154 164 155 136 137 137 145 186 186 193 188 187 212 187 158 154 171 167 168 169 168 166
319 316 314 311 311 315 311 307 309 311 313 308 303 296 292 293 310 260 177 220 184 204 227 258 277 242 237 227 200 190 182 155 169 160 186 172 156 151 168 172 165 167 169 177 171 201 169 207 192 218 203 228 219 217 229 205 203 198 198 223 214 226 223 196 163 176 176 186 171 149 132 143 147 183 203 202 212 176 182 207 160 158 169 169 174 173 170 170
317 318 312 309 307 306 306 305 305 311 311 310 288 272 257 259 261 238 243 176 199 183 211 185 199 198 360 163 156 166 183 144 169 166 165 184 161 166 166 173 168 168 181 194 163 209 170 218 190 223 209 206 215 216 222 223 207 210 206 217 228 212 214 152 183 154 192 189 169 155 172 155 179 171 202 219 212 185 167 137 264 160 171 170 176 177 173 173
317 311 310 309 306 301 301 299 301 304 321 310 250 200 208 216 186 194 208 208 232 252 345 38 210 337 189 137 144 80 81 147 167 189 157 178 172 170 172 169 173 195 188 206 153 211 169 210 196 209 214 203 214 219 226 242 266 240 208 221 223 224 218 158 129 154 181 216 207 176 186 143 191 168 175 192 191 217 157 167 196 168 169 174 174 177 176 172
313 315 311 309 304 302 296 299 296 295 299 281 278 257 271 3 308 111 165 218 230 244 253 237 227 249 346 112 110 168 178 174 204 167 182 158 195 178 160 187 171 196 201 201 171 174 201 218 210 210 221 209 211 223 237 257 256 281 234 209 229 219 224 210 151 165 201 226 209 206 192 159 158 156 190 160 214 170 199 168 177 160 178 169 173 175 179 171
317 314 314 307 304 302 300 293 297 298 280 264 255 254 316 42 11 340 299 282 194 225 227 247 261 253 80 269 21 299 192 172 201 171 164 192 162 212 146 206 183 201 185 200 171 179 207 219 216 209 220 223 210 221 234 243 258 245 250 200 223 204 224 77 125 159 169 211 204 196 230 171 167 135 190 190 178 189 184 170 176 169 181 173 162 178 178 173
319 316 310 309 304 299 297 295 294 306 266 212 225 243 0 15 327 348 303 287 284 163 225 214 210 224 209 191 201 195 210 190 188 172 161 209 169 228 158 210 187 208 178 199 191 185 204 217 222 212 213 219 214 219 219 215 234 233 240 201 226 206 202 184 178 190 182 214 203 177 221 212 166 149 162 202 180 167 155 178 188 195 180 178 178 151 181 178
320 315 314 312 308 299 293 300 294 254 233 230 250 340 32 321 323 311 286 270 258 157 230 181 213 195 195 200 162 199 213 181 188 166 159 206 197 204 200 213 195 218 193 193 209 204 215 201 213 217 206 213 217 202 207 209 214 222 244 222 212 213 208 268 172 188 181 208 286 172 216 199 181 174 171 184 177 159 164 159 177 199 193 183 170 172 158 190
317 319 316 315 309 304 299 312 242 214 205 217 250 77 294 313 305 326 297 265 236 140 98 150 257 226 71 46 153 215 213 188 198 159 168 211 194 192 220 200 234 213 204 187 214 225 217 219 186 219 200 202 222 194 207 212 220 212 227 247 231 226 202 146 68 185 172 202 210 183 209 207 170 189 177 162 160 171 163 160 169 187 177 192 193 166 167 71
320 316 319 310 311 307 297 262 173 218 210 232 72 92 266 314 352 313 287 264 174 106 175 162 204 151 137 188 164 227 223 200 154 156 172 208 201 232 175 220 223 202 202 187 211 229 233 185 236 198 189 194 213 213 197 218 231 227 201 231 248 250 223 155 194 245 210 220 179 208 256 203 179 195 152 158 158 156 156 155 164 174 179 187 190 201 181 165
321 319 315 314 305 313 262 31 24 241 237 164 137 295 344 297 31 286 263 225 164 134 156 104 196 101 257 145 192 140 208 145 159 125 188 191 225 195 255 210 181 266 211 189 192 215 240 174 189 178 191 202 209 215 192 204 229 236 185 197 231 283 224 205 198 219 244 214 85 178 215 243 181 95 83 135 148 162 148 158 157 171 187 185 189 197 195 178
321 318 312 304 300 268 317 310 271 228 357 40 329 310 310 356 284 260 263 238 82 196 131 156 12 136 245 158 225 204 7 124 189 158 211 156 252 173 246 234 201 198 235 182 221 152 214 162 188 188 205 208 210 215 182 202 230 255 210 169 204 247 282 205 214 228 249 205 185 198 221 238 189 115 146 145 132 160 158 163 151 181 187 194 193 196 197 202
320 319 315 304 287 267 278 264 299 321 30 348 357 301 299 293 267 282 270 82 80 205 11 147 157 209 174 167 205 218 175 183 254 143 160 175 223 274 204 239 222 221 208 217 226 173 199 180 184 211 205 213 216 205 199 193 222 152 28 347 243 206 212 221 229 237 226 243 229 196 187 225 126 170 166 159 150 185 139 145 162 163 172 190 191 186 214 209
319 319 314 301 277 219 211 231 252 337 335 327 311 310 276 264 251 238 229 79 193 142 230 74 208 156 180 182 173 175 203 159 42 145 166 203 181 228 278 330 255 216 198 206 255 181 173 172 207 213 207 221 209 202 212 189 230 203 148 201 214 229 222 219 249 234 227 229 224 229 192 218 144 186 180 160 124 136 147 160 141 150 153 195 171 196 212 210
318 316 307 278 262 349 304 238 122 40 350 310 290 275 271 243 257 324 311 60 221 106 183 189 139 155 184 189 168 189 197 144 169 179 162 194 180 223 219 198 283 260 210 199 226 230 178 176 204 209 226 230 210 194 216 184 216 243 171 209 193 211 215 229 222 233 233 224 212 219 233 199 191 175 104 94 126 88 76 129 104 144 166 162 185 174 194 203
318 312 297 245 303 319 277 5 3 319 308 297 280 258 243 246 223 280 88 165 249 131 229 144 150 189 186 188 182 165 175 188 153 193 174 189 173 202 198 228 181 218 207 187 210 205 172 222 181 227 187 254 223 207 203 185 200 227 203 210 209 182 195 204 202 208 219 223 194 201 230 203 221 110 136 131 118 109 66 39 49 14 125 167 192 173 190 189
316 310 301 247 268 249 255 311 327 301 277 251 263 254 248 304 186 356 129 220 89 314 118 294 152 199 199 194 165 184 155 199 164 207 195 187 193 195 162 265 226 211 232 196 214 196 188 201 195 207 176 224 241 208 183 188 202 212 209 206 213 190 193 206 198 216 214 236 234 200 217 241 95 107 123 130 115 92 85 81 58 12 52 124 203 191 161 186
309 307 259 203 217 251 314 296 265 274 250 235 256 248 255 260 82 280 354 60 80 159 129 210 189 178 164 193 140 162 192 120 201 161 212 161 244 166 222 213 285 208 244 190 236 187 199 185 186 174 196 194 232 228 185 203 196 217 207 222 221 211 190 198 200 205 209 195 221 217 183 154 161 127 158 100 93 88 72 58 51 30 29 99 222 165 157 176
310 282 245 256 223 243 244 244 235 229 252 241 241 298 302 62 5 50 84 77 131 181 172 195 214 170 191 159 183 199 195 173 209 143 227 179 207 198 186 182 181 297 294 269 202 198 214 202 163 185 304 179 209 225 252 296 231 192 216 227 222 230 191 221 196 211 197 196 198 210 202 39 139 134 114 114 102 83 76 62 50 38 51 66 102 126 181 181
300 229 212 237 264 51 216 208 202 218 239 256 276 283 204 21 33 352 39 323 269 265 147 201 231 182 172 159 189 205 146 220 199 203 203 167 19 27 23 28 288 347 307 310 310 207 212 136 126 129 172 177 209 219 232 241 230 177 204 214 225 225 233 234 234 211 212 213 208 175 125 98 116 144 126 121 105 90 71 63 53 39 29 63 97 63 35 172
228 234 221 11 351 13 36 236 204 213 244 269 254 222 24 89 5 344 51 327 355 335 188 212 182 216 189 176 189 186 176 218 175 184 188 126 133 44 40 30 292 313 332 315 311 254 235 128 154 170 185 199 236 251 229 214 253 290 207 215 223 233 256 248 241 198 214 212 198 179 180 157 167 140 158 125 110 88 65 54 55 50 39 35 81 77 77 75
297 263 318 288 13 336 234 199 236 244 256 267 33 38 331 69 41 14 10 301 186 213 287 292 114 285 204 202 174 184 162 215 147 215 167 218 119 335 355 279 21 318 331 311 295 28 294 164 179 177 203 166 190 216 222 249 242 248 271 331 227 201 210 216 297 232 212 207 213 194 173 178 193 142 163 158 128 109 87 53 47 56 51 42 52 92 78 51
272 274 209 68 344 2 308 241 242 260 318 282 128 181 66 66 38 23 22 328 279 334 272 76 142 194 347 177 229 175 145 218 150 215 177 159 204 31 44 324 52 344 317 307 267 308 268 270 141 176 203 146 197 197 211 198 223 242 258 254 248 246 213 214 219 261 241 199 221 188 170 168 167 139 107 79 58 72 75 64 53 54 56 54 59 72 57 48
251 244 122 11 30 311 293 251 261 258 224 259 52 56 15 70 33 37 37 330 31 312 1 139 314 146 240 107 191 175 197 235 185 97 270 112 65 57 47 13 358 322 323 298 283 289 269 275 247 147 179 156 200 192 212 197 201 212 235 240 206 236 238 228 217 233 225 215 213 193 159 106 100 105 107 105 99 78 82 79 70 61 58 59 59 54 62 62
306 296 85 354 8 301 272 263 256 273 88 79 41 55 24 31 356 57 26 2 313 19 338 5 303 272 67 162 180 91 194 181 177 160 202 98 344 155 56 11 322 333 307 280 257 269 267 227 241 144 187 197 203 147 45 354 339 215 205 222 214 199 207 209 213 215 229 219 228 208 152 126 89 127 125 117 108 95 93 99 77 62 60 57 55 53 43 56
279 269 55 3 340 251 264 251 66 308 353 61 58 4 75 292 274 15 346 34 357 55 7 346 47 33 316 336 27 174 202 163 106 131 20 43 58 20 58 344 344 311 306 244 210 54 322 313 267 186 212 206 97 54 5 325 298 323 283 220 221 211 219 228 234 217 227 253 243 69 115 120 111 119 127 111 102 101 86 76 78 66 58 55 53 52 48 44
285 21 51 355 321 268 277 92 92 82 54 74 170 121 180 148 4 9 334 324 151 314 123 19 43 211 216 313 249 68 333 79 306 87 103 112 67 35 33 351 340 309 292 106 225 80 311 240 247 14 44 91 110 63 359 310 314 260 228 292 305 240 223 227 218 236 251 220 236 153 130 128 156 119 116 116 115 114 98 86 80 73 69 59 52 49 46 45
21 339 95 60 290 304 277 67 107 73 87 113 54 92 29 33 0 73 37 39 5 57 35 87 114 7 93 249 216 196 346 184 109 147 146 97 95 30 23 12 344 38 347 28 330 20 273 202 255 222 223 179 144 199 206 200 233 244 233 220 289 308 288 280 317 329 248 243 236 201 180 162 155 147 130 134 130 110 96 81 77 78 72 66 59 53 48 48
320 192 95 77 317 306 332 22 32 119 124 114 145 130 136 108 32 16 19 53 14 23 169 67 20 78 102 11 101 257 149 318 131 14 55 92 95 67 63 19 8 29 31 12 337 316 296 355 263 225 214 205 197 192 195 180 208 213 244 358 250 262 260 261 242 229 253 251 284 280 78 113 142 158 149 132 122 115 105 97 89 79 74 65 64 62 53 48
286 269 126 126 9 113 92 344 14 98 122 150 130 74 121 122 114 37 335 78 358 58 22 77 30 278 144 193 147 137 132 337 272 138 197 132 128 109 27 52 31 26 9 334 313 306 317 281 357 355 334 331 27 349 341 285 177 209 180 223 228 233 253 270 270 247 238 235 227 82 133 134 154 157 151 140 138 128 116 103 98 94 87 79 69 65 65 59
323 341 353 18 188 91 74 17 93 298 76 352 37 352 59 34 98 118 335 52 8 7 52 359 55 242 110 233 128 119 62 104 82 138 77 115 65 82 88 15 82 37 324 295 321 304 268 254 131 287 340 350 354 346 337 329 216 163 183 187 221 238 235 240 231 243 275 318 177 150 139 146 150 148 146 141 127 116 114 115 105 87 81 83 80 77 73 67
286 69 330 19 317 9 0 78 358 80 72 294 80 274 63 85 53 80 131 43 112 324 302 137 36 12 28 25 125 123 118 94 141 105 122 50 202 146 174 125 30 88 280 321 345 304 308 266 110 258 168 321 332 2 349 323 3 165 266 286 225 221 233 233 235 283 305 258 196 151 149 140 146 141 148 130 135 123 100 102 93 104 109 92 82 76 72 68
16 78 47 278 289 50 36 45 21 70 64 43 92 7 95 63 85 32 4 81 30 78 324 116 45 68 58 343 315 77 29 253 135 52 11 60 1 322 239 170 135 359 334 353 338 337 280 266 49 270 229 205 209 258 241 274 228 242 236 222 258 242 222 259 242 251 248 248 136 152 136 135 140 145 144 147 134 130 119 116 115 95 79 76 78 74 72 69
53 335 107 75 66 112 140 182 127 163 95 271 210 62 80 111 90 86 37 358 85 70 48 84 84 68 65 67 52 75 62 20 28 122 74 336 207 263 355 339 355 81 345 27 314 113 272 122 231 256 232 211 223 229 228 247 252 239 214 238 234 234 233 265 268 199 111 122 140 136 136 135 145 138 131 128 135 129 127 107 96 89 92 87 72 68 65 63
19 11 349 314 115 54 330 169 172 141 136 129 115 124 96 77 77 54 60 17 55 74 56 81 87 96 80 78 66 65 45 43 37 57 76 359 4 59 320 70 321 314 82 284 232 346 266 145 196 242 251 206 202 238 228 243 250 250 219 224 223 217 214 199 209 131 152 141 138 134 136 145 144 144 137 146 145 136 126 125 116 104 92 74 76 74 64 62
18 54 297 297 85 237 253 97 118 231 80 40 50 108 95 99 112 164 108 45 47 38 43 62 48 119 95 79 67 54 17 19 41 26 14 357 342 25 33 14 350 352 353 26 278 266 251 263 202 203 234 223 137 211 256 237 229 234 223 207 213 238 15 66 72 300 128 148 164 158 151 145 147 149 155 150 151 143 140 127 105 85 71 78 72 61 67 59